{"data":{"norad_id":58196,"intl_designator":"2023-167X","name":"STARLINK-30798","alt_names":[],"object_type":"PAYLOAD","status":"ACTIVE","operator":null,"country":"US","launch_date":"2023-10-30","launch_site_code":"AFETR","launch_vehicle":null,"mission":null,"orbit_class":"UNKNOWN","rcs_meters":null,"size_class":null,"mass_kg":null,"dimensions":null,"purposes":["comms"],"wikipedia_slug":null,"has_3d_model":false,"image_url":null,"decayed_at":null,"tle_current":{"epoch":"2026-09-20T00:32:50.482464Z","epoch_age_seconds":184907,"freshness":"STALE","line1":"1 58196U 23167X   26263.02280651  .00000474  00000+0  26754-4 0  9993","line2":"2 58196  43.0029 126.0934 0001734 266.2787  93.7867 15.27580093160701","mean_motion":15.27580093,"eccentricity":0.0001734,"inclination_deg":43.0029,"raan_deg":126.0934,"arg_perigee_deg":266.2787,"mean_anomaly_deg":93.7867,"bstar":2.6754e-5,"rev_number":16070,"period_min":94.266742974635,"perigee_km":481.85908794345,"apogee_km":484.23854718498,"semimajor_km":6861.1858175642,"source":"CELESTRAK","updated_at":"2026-09-21T09:00:33.830419Z"}}}